Weather History for Cook, MN

Change the Weather History Date:

Monday, February 4, 2013

  Actual Average Record
Temperature  
Mean Temperature -14 °F -  
Max Temperature 6 °F 22 °F 48 °F (2005)
Min Temperature -34 °F 2 °F -34 °F (2013)
Degree Days  
Heating Degree Days 79    
Moisture  
Dew Point -16 °F    
Average Humidity 72    
Maximum Humidity 85    
Minimum Humidity 61    
Precipitation  
Precipitation 0.00 in - - ()
Sea Level Pressure  
Sea Level Pressure 29.86 in    
Wind  
Wind Speed 1 mph (South)    
Max Wind Speed 8 mph    
Max Gust Speed -    
Visibility 8 miles    
Events Snow    
Averages and records for this station are not official NWS values.
T = Trace of Precipitation, MM = Missing Value Source: NWS Daily Summary

Daily Weather History Graph

Daily Weather History Graph

Search for Another Location

Airport:

Trip Planner

Search our weather history database for the weather conditions in past years. The results will help you decide how hot, cold, wet, or windy it might be!

Date:

Astronomy

Feb. 04, 2013 Rise Set
Actual Time 7:33 AM CST 5:16 PM CST
Civil Twilight 7:00 AM CST 5:49 PM CST
Nautical Twilight 6:23 AM CST 6:26 PM CST
Astronomical Twilight 5:47 AM CST 7:02 PM CST
Moon 2:15 AM CST (2/4) 11:34 AM CST (2/4)
Length of Visible Light 10h 48m
Length of Day
9h 43m
Last Quarter, 37% of the Moon is Illuminated
Feb 4
Last Quarter
Feb 10
New
Feb 17
First Quarter
Feb 25
Full
Mar 4
Last Quarter

Hourly Weather History & Observations

Time (CST) Temp. Windchill Dew Point Humidity Pressure Visibility Wind Dir Wind Speed Gust Speed Precip Events Conditions
12:16 AM -23.8 °F - -29.2 °F 76% 29.97 in - Calm Calm - N/A   Clear
12:37 AM -25.6 °F - -31.0 °F 76% 29.97 in - Calm Calm - N/A   Clear
12:57 AM -25.6 °F - -32.8 °F 69% 29.97 in - Calm Calm - N/A   Clear
1:16 AM -27.4 °F - -32.8 °F 75% 29.97 in - Calm Calm - N/A   Clear
1:37 AM -27.4 °F - -34.6 °F 69% 29.97 in - Calm Calm - N/A   Clear
1:56 AM -29.2 °F - -34.6 °F 75% 29.97 in - Calm Calm - N/A   Clear
2:17 AM -29.2 °F - -34.6 °F 75% 29.98 in - Calm Calm - N/A   Clear
2:37 AM -29.2 °F - -36.4 °F 68% 29.97 in - Calm Calm - N/A   Clear
2:56 AM -29.2 °F - -36.4 °F 68% 29.97 in - Calm Calm - N/A   Clear
3:17 AM -29.2 °F - -36.4 °F 68% 29.97 in - Calm Calm - N/A   Clear
4:56 AM -32.8 °F - -38.2 °F 75% 29.97 in - Calm Calm - N/A   Clear
5:17 AM -32.8 °F - -40.0 °F 68% 29.97 in - Calm Calm - N/A   Clear
5:36 AM -32.8 °F - -40.0 °F 68% 29.97 in - Calm Calm - N/A   Clear
6:17 AM -34.6 °F - -41.8 °F 68% 29.97 in - Calm Calm - N/A   Clear
6:36 AM -34.6 °F - -41.8 °F 68% 29.98 in - Calm Calm - N/A   Clear
6:56 AM -34.6 °F - -41.8 °F 68% 29.97 in - Calm Calm - N/A   Scattered Clouds
7:17 AM -32.8 °F - -40.0 °F 68% 29.97 in - Calm Calm - N/A   Overcast
7:36 AM -32.8 °F - -38.2 °F 75% 29.96 in - Calm Calm - N/A   Overcast
7:56 AM -29.2 °F - -36.4 °F 68% 29.97 in - Calm Calm - N/A   Overcast
8:17 AM -27.4 °F - -32.8 °F 75% 29.97 in - Calm Calm - N/A   Overcast
8:36 AM -25.6 °F - -32.8 °F 69% 29.97 in - Calm Calm - N/A   Overcast
8:56 AM -22.0 °F - -27.4 °F 76% 29.97 in - Calm Calm - N/A   Overcast
9:17 AM -20.2 °F - -25.6 °F 76% 29.97 in - Calm Calm - N/A   Overcast
9:36 AM -16.6 °F - -22.0 °F 76% 29.96 in 4.0 mi Calm Calm - N/A Snow Light Snow
9:56 AM -14.8 °F - -18.4 °F 84% 29.96 in 7.0 mi Calm Calm - N/A Snow Light Snow
10:16 AM -11.2 °F - -16.6 °F 77% 29.96 in 10.0 mi Calm Calm - N/A   Overcast
10:36 AM -11.2 °F - -16.6 °F 77% 29.95 in 7.0 mi Calm Calm - N/A Snow Light Snow
10:57 AM -7.6 °F - -14.8 °F 71% 29.96 in 10.0 mi Calm Calm - N/A   Overcast
11:16 AM -5.8 °F - -11.2 °F 77% 29.96 in 10.0 mi Calm Calm - N/A   Overcast
11:36 AM -2.2 °F - -9.4 °F 71% 29.95 in 10.0 mi Calm Calm - N/A   Mostly Cloudy
11:57 AM -2.2 °F - -9.4 °F 71% 29.94 in 10.0 mi Calm Calm - N/A   Scattered Clouds
12:16 PM -0.4 °F - -7.6 °F 72% 29.92 in 10.0 mi Calm Calm - N/A   Overcast
12:36 PM -0.4 °F -8.3 °F -7.6 °F 72% 29.91 in 10.0 mi SSW 3.5 mph - N/A   Mostly Cloudy
12:57 PM 1.4 °F -8.3 °F -7.6 °F 66% 29.90 in 10.0 mi SW 4.6 mph - N/A   Scattered Clouds
1:16 PM 1.4 °F -6.2 °F -7.6 °F 66% 29.90 in 10.0 mi WSW 3.5 mph - N/A   Mostly Cloudy
1:36 PM 1.4 °F -8.3 °F -5.8 °F 72% 29.89 in 10.0 mi WSW 4.6 mph - N/A   Mostly Cloudy
1:57 PM 3.2 °F -4.2 °F -5.8 °F 66% 29.89 in 10.0 mi WSW 3.5 mph - N/A   Mostly Cloudy
2:37 PM 3.2 °F -6.2 °F -5.8 °F 66% 29.87 in 10.0 mi West 4.6 mph - N/A   Mostly Cloudy
2:56 PM 5.0 °F -5.6 °F -5.8 °F 61% 29.87 in 10.0 mi South 5.8 mph - N/A   Overcast
3:16 PM 3.2 °F -9.1 °F -5.8 °F 66% 29.86 in 10.0 mi SW 6.9 mph - N/A   Overcast
3:36 PM 5.0 °F -4.1 °F -5.8 °F 61% 29.85 in 10.0 mi South 4.6 mph - N/A   Overcast
3:57 PM 5.0 °F -5.6 °F -5.8 °F 61% 29.83 in 10.0 mi South 5.8 mph - N/A   Overcast
4:16 PM 5.0 °F -5.6 °F -4.0 °F 66% 29.82 in 10.0 mi South 5.8 mph - N/A   Overcast
4:36 PM 5.0 °F -5.6 °F -4.0 °F 66% 29.81 in 10.0 mi South 5.8 mph - N/A   Overcast
4:56 PM 3.2 °F -7.8 °F -5.8 °F 66% 29.80 in 10.0 mi SSW 5.8 mph - N/A   Overcast
5:16 PM 3.2 °F -4.2 °F -5.8 °F 66% 29.79 in 10.0 mi South 3.5 mph - N/A   Overcast
5:37 PM 3.2 °F - -5.8 °F 66% 29.79 in 10.0 mi Calm Calm - N/A   Overcast
5:56 PM 3.2 °F - -4.0 °F 72% 29.78 in 10.0 mi Calm Calm - N/A   Overcast
6:16 PM 3.2 °F - -5.8 °F 66% 29.78 in 10.0 mi Calm Calm - N/A   Overcast
6:36 PM 3.2 °F - -5.8 °F 66% 29.77 in 10.0 mi Calm Calm - N/A   Overcast
6:56 PM 3.2 °F - -5.8 °F 66% 29.76 in 10.0 mi Calm Calm - N/A   Overcast
7:17 PM 3.2 °F - -5.8 °F 66% 29.76 in 10.0 mi Calm Calm - N/A   Overcast
7:36 PM 3.2 °F -6.2 °F -5.8 °F 66% 29.74 in 10.0 mi SE 4.6 mph - N/A   Overcast
7:57 PM 3.2 °F -6.2 °F -5.8 °F 66% 29.73 in 10.0 mi SSE 4.6 mph - N/A   Overcast
8:16 PM 5.0 °F -5.6 °F -5.8 °F 61% 29.72 in 10.0 mi SSE 5.8 mph - N/A   Overcast
8:56 PM 5.0 °F -4.1 °F -2.2 °F 72% 29.71 in 3.0 mi SSE 4.6 mph - N/A Snow Light Snow
9:16 PM 5.0 °F -2.1 °F -0.4 °F 78% 29.70 in 1.5 mi SSE 3.5 mph - N/A Snow Light Snow
9:37 PM 5.0 °F -5.6 °F 1.4 °F 85% 29.68 in 1.0 mi SSE 5.8 mph - N/A Snow Snow
9:56 PM 5.0 °F -5.6 °F 1.4 °F 85% 29.66 in 1.2 mi SE 5.8 mph - N/A Snow Light Snow
10:17 PM 5.0 °F -2.1 °F 1.4 °F 85% 29.65 in 1.0 mi SE 3.5 mph - N/A Snow Snow
10:37 PM 5.0 °F -8.1 °F 1.4 °F 85% 29.63 in 0.8 mi SE 8.1 mph - N/A Snow Snow
10:56 PM 5.0 °F -5.6 °F 1.4 °F 85% 29.62 in 0.8 mi SE 5.8 mph - N/A Snow Snow
11:17 PM 6.8 °F -4.8 °F 3.2 °F 85% 29.60 in 0.8 mi SSE 6.9 mph - N/A Snow Snow
11:36 PM 6.8 °F -3.5 °F 3.2 °F 85% 29.60 in 1.2 mi SSE 5.8 mph - N/A Snow Light Snow
11:57 PM 6.8 °F -2.0 °F 3.2 °F 85% 29.60 in 1.5 mi SSE 4.6 mph - N/A Snow Light Snow